Location: Vihalaita
(61.0500°N, 23.1167°E)
Time: 02:40:13
(UTC+00:00)

Daily predictions for brighter satellites

Satellite Brightness Start Highest point End
(mag) Time Altitude Azimuth Time Altitude Azimuth Time Altitude Azimuth
Cosmos 2297 Rocket 4.3 01:06:53 23° NE 01:06:53 23° NE 01:09:02 10° NE
Cosmos 2082 Rocket 4.0 01:34:12 26° NNE 01:34:12 26° NNE 01:37:36 10° ENE
ATLAS 3B R/B 3.6 01:43:18 42° ESE 01:43:18 42° ESE 01:47:46 10° ESE
Cosmos 2344 3.9 01:42:59 88° SSE 01:42:59 88° SSE 01:54:05 10° ESE
ADEOS II 4.3 01:37:46 10° NNE 01:39:01 18° NNE 01:39:01 18° NNE
Cosmos 1833 Rocket 4.3 01:44:49 30° NE 01:44:49 30° NE 01:48:43 10° ENE
CZ-2D R/B 4.4 01:45:39 10° NNE 01:46:50 16° N 01:46:50 16° N
ARIANE 5 R/B 4.5 01:54:19 10° NNE 01:56:13 23° NNE 01:56:13 23° NNE
USA 229 DEB 3.9 02:07:27 69° NE 02:07:27 69° NE 02:13:57 10° ENE
USA 229 3.9 02:07:33 69° NE 02:07:33 69° NE 02:14:02 10° ENE
CENTAUR R/B 4.3 02:14:21 27° S 02:14:21 27° S 02:18:15 10° SSE
Cosmos 2082 4.4 02:13:06 51° ENE 02:13:06 51° ENE 02:17:34 10° NE
ALOS 4.4 02:08:12 10° NE 02:12:01 24° E 02:14:47 15° SE
Cosmos 2227 Rocket 3.0 02:15:24 46° NE 02:15:24 46° NE 02:19:18 10° NE
NOSS 3-1 (C) 3.7 02:20:03 72° NNE 02:20:03 72° NNE 02:27:12 10° E
NOSS 3-1 (A) 3.7 02:21:08 73° NNE 02:21:08 73° NNE 02:28:05 10° ENE
Cosmos 2219 3.9 02:28:21 49° NNE 02:28:21 49° NNE 02:32:37 10° NE
Timation 2 Rocket 4.1 02:46:32 65° NNW 02:46:32 65° NNW 02:53:03 10° NE
Cosmos 2297 Rocket 2.6 02:48:41 52° N 02:48:41 52° N 02:53:17 10° NE
ATLAS CENTAUR R/B 3.8 02:55:54 14° SE 02:55:54 14° SE 02:56:28 10° SE
Lacrosse 5 4.4 02:52:48 11° SSE 02:55:39 16° SE 02:58:41 10° E
CZ-2C R/B 3.3 02:51:59 10° NNE 02:54:56 39° NNE 02:54:56 39° NNE
Cosmos 2112 Rocket 4.5 02:58:30 53° SSE 02:58:30 53° SSE 03:02:34 10° SSE
NOSS 2-3 (E) 4.2 02:58:24 70° N 02:58:27 70° N 03:05:04 10° E
Cosmos 1745 Rocket 3.9 02:59:34 59° SSW 03:00:54 85° WNW 03:07:20 10° NNE
Resurs 1-4 Rocket 4.2 02:58:07 10° N 02:59:33 15° N 02:59:33 15° N
Cosmos 2263 Rocket 2.9 03:01:26 31° S 03:03:57 53° ESE 03:09:29 10° NE
IDEFIX/ARIANE 42P 3.9 03:01:06 10° NNE 03:03:39 27° N 03:03:39 27° N
Meteor 1-26 Rocket 4.1 03:06:29 79° W 03:06:34 80° WSW 03:12:15 10° S
SJ 16-02 2.7 03:08:47 19° SSE 03:11:27 38° ESE 03:15:35 10° NE
MSX 4.2 03:08:14 10° NNE 03:12:53 49° NNW 03:12:53 49° NNW
FENGYUN 3A 4.0 03:08:43 10° NNE 03:14:09 64° ESE 03:19:31 10° S
Cosmos 2181 Rocket 3.8 03:08:56 10° NNW 03:15:12 77° W 03:21:22 10° S
Cosmos 2082 Rocket 3.1 03:16:03 33° NNW 03:17:58 43° NNE 03:23:24 10° E
CZ-2C R/B 4.1 03:13:24 10° ESE 03:18:16 35° NE 03:23:04 10° N
NOSS 2-2 (E) 3.6 03:22:18 73° NE 03:22:18 73° NE 03:26:57 10° ENE
ADEOS II 3.9 03:17:58 10° N 03:19:57 19° NNW 03:19:57 19° NNW
Cosmos 1766 Rocket 3.8 03:20:46 33° S 03:22:42 68° E 03:27:10 10° NNE
Cosmos 1709 Rocket 4.0 03:19:44 10° S 03:26:08 89° E 03:32:35 10° NNE
Cosmos 1484 Rocket 4.0 03:22:38 10° NNE 03:24:49 33° NNE 03:24:49 33° NNE
CBERS 1 LM4 rocket 4.3 03:21:56 10° NNE 03:26:45 88° ESE 03:28:09 47° SSW
Cosmos 1833 Rocket 3.1 03:26:32 36° NNW 03:28:38 58° NE 03:34:12 10° ESE
NOSS 2-3 (D) 4.2 03:27:38 57° NW 03:28:42 71° N 03:35:29 10° E
USA 307 4.1 03:28:58 32° S 03:28:58 32° S 03:32:40 10° ESE
Cosmos 1408 Rocket 4.4 03:24:29 10° S 03:28:48 50° E 03:33:07 10° NNE
CZ-2D R/B 4.1 03:26:22 10° N 03:28:08 15° NNW 03:28:08 15° NNW
Okean 3 Rocket 3.5 03:29:47 53° S 03:30:48 82° ESE 03:35:15 10° NNE
ATLAS 3B R/B 3.0 03:30:34 43° WSW 03:31:02 44° SW 03:37:40 10° SSE
Meteor 1-27 Rocket 4.4 03:26:14 10° NNW 03:31:52 55° ENE 03:37:34 10° SE
COSMO-SKYMED 1 3.4 03:28:02 10° S 03:30:47 38° S 03:30:47 38° S
CZ-4C R/B 4.2 03:28:30 10° S 03:32:54 27° ESE 03:37:59 10° ENE
Cosmos 1633 4.4 03:36:11 22° NNE 03:36:11 22° NNE 03:37:34 10° NNE
Meteor 1-10 Rocket 4.3 03:29:20 15° NNW 03:33:59 75° ENE 03:39:35 10° SSE
USA 308 4.1 03:35:04 32° S 03:35:05 32° S 03:38:57 10° ESE
Meteor 2-3 Rocket 3.9 03:29:55 10° S 03:35:40 75° ESE 03:41:30 10° NNE
CZ-4B R/B 4.2 03:33:46 10° NNE 03:38:10 46° E 03:42:28 10° S
ARIANE 5 R/B 3.9 03:33:49 10° N 03:36:32 25° NNW 03:36:32 25° NNW
COSMOS 2406 3.4 03:35:59 36° NNW 03:38:23 70° NE 03:44:09 10° SE
Timation 1 Rocket 4.2 03:38:32 46° WSW 03:40:25 77° NW 03:46:30 10° NE
MOS 1 Rocket 3.6 03:35:50 10° SSE 03:40:48 75° ENE 03:46:03 10° NNW
Cosmos 1048 Rocket 4.3 03:40:04 30° NNW 03:42:39 64° NE 03:47:52 10° SE
Cosmos 1503 Rocket 4.4 03:46:34 44° NW 03:46:36 44° NW 03:51:41 10° NNE
NOSS 2-2 (D) 3.3 03:46:57 72° WNW 03:47:15 76° NNW 03:52:13 10° ENE
ALOS 2.1 03:45:16 10° NNE 03:49:58 77° WNW 03:53:16 20° SSW
deb Chang Zheng 4 3.7 03:46:54 10° NNE 03:51:16 76° ESE 03:55:37 10° SSW
Cosmos 909 Rocket 4.2 03:49:33 35° NW 03:52:15 64° NNE 03:58:33 10° E
SL-24 R/B 4.4 03:46:51 10° S 03:52:22 63° WSW 03:54:27 34° NNW
NOSS 2-3 (C) 4.4 03:51:00 44° WNW 03:52:54 75° NNE 03:59:55 10° E
METEOR-M 4.0 03:49:12 10° NNE 03:54:35 88° WNW 03:59:57 10° SSW
Cosmos 2074 Rocket 4.3 03:49:55 10° S 03:56:04 69° E 04:02:16 10° NNE
Cosmos 2082 4.0 03:54:59 43° WNW 03:56:15 50° NNW 04:01:52 10° NE
Cosmos 2344 4.5 03:53:01 32° WNW 03:57:09 49° SW 04:08:27 10° SSE
USA 229 DEB 3.8 03:54:54 36° WNW 03:58:06 79° NNE 04:05:34 10° E
USA 229 3.8 03:54:59 36° WNW 03:58:12 79° NNE 04:05:39 10° E
Cosmos 2227 Rocket 2.7 03:57:13 37° NW 03:58:15 40° NNW 04:03:36 10° NE
Cosmos 2151 4.2 04:02:12 27° NNW 04:02:12 27° NNW 04:04:30 10° N
EO 1 Delta rocket 3.7 03:55:43 10° S 04:00:29 81° WSW 04:05:11 10° NNW
ARGOS Delta rocket 4.0 03:55:46 10° N 04:00:58 59° WNW 04:04:43 17° SW
Cosmos 968 Rocket 4.4 04:01:50 30° NW 04:02:00 31° NNW 04:06:35 10° NNE
Meteor 1-31 Rocket 2.6 03:58:53 10° NNE 04:02:46 78° WNW 04:05:09 22° SSW
TRAILBLAZER 4.5 04:02:25 49° WSW 04:03:37 81° NNW 04:08:15 10° ENE
USA 305 4.1 04:02:46 28° SSW 04:03:42 31° S 04:07:31 10° SE
Cosmos 2227 4.1 04:01:37 24° SW 04:05:09 82° NW 04:10:51 10° NE
NOSS 3-4 (A) 4.0 04:00:50 12° SW 04:06:24 60° SE 04:12:54 10° ENE
NOSS 3-4 (C) 4.0 04:00:54 12° SW 04:06:32 59° SE 04:13:02 10° ENE
Cosmos 1812 2.6 04:07:43 57° NW 04:08:14 66° W 04:12:03 10° S
Cosmos 2228 Rocket 2.9 04:05:58 28° NNW 04:08:16 71° W 04:12:39 10° S
Cosmos 1515 Rocket 4.0 04:09:36 40° WSW 04:09:36 40° WSW 04:13:16 10° SSW
NOSS 3-1 (C) 3.8 04:07:27 32° WNW 04:11:01 86° NNE 04:19:03 10° ESE
Cosmos 405 Rocket 3.8 04:07:37 10° S 04:11:11 45° E 04:14:50 10° NNE
Cosmos 2219 4.0 04:10:17 31° NW 04:11:50 36° NNW 04:17:09 10° NE
NOSS 3-1 (A) 3.8 04:08:34 32° WNW 04:12:03 79° NNE 04:19:59 10° ESE
USA 306 4.1 04:10:52 26° SW 04:12:03 31° S 04:15:51 10° SE
Cosmos 2184 Rocket 4.1 04:07:10 10° S 04:13:31 83° E 04:19:57 10° NNE
SL-4 R/B 3.7 04:15:03 18° SSW 04:16:17 20° S 04:19:05 10° SE
DMSP B5D1-3 4.5 04:12:13 10° S 04:17:21 67° WSW 04:21:56 13° NNW
Meteor 2-17 Rocket 4.3 04:11:47 10° SSW 04:17:50 76° WNW 04:23:58 10° NNE
Cosmos 1777 Rocket 4.1 04:16:44 32° WSW 04:18:54 52° NW 04:24:02 10° NNE
SJ-12 3.7 04:15:02 10° NNE 04:19:07 76° WNW 04:23:10 10° SSW
Cosmos 1184 Rocket 4.3 04:21:36 24° N 04:21:36 24° N 04:23:11 10° N
Cosmos 1844 Rocket 3.6 04:16:56 10° SSW 04:22:23 50° ESE 04:27:52 10° NE
Cosmos 1707 Rocket 3.6 04:21:30 11° NNW 04:25:39 81° ENE 04:29:59 10° SSE
ATLAS 2AS CENTAUR R/B 3.4 04:18:34 10° SW 04:26:27 67° SE 04:34:04 10° ENE
ADEOS 3.6 04:24:28 10° NNE 04:29:36 55° WNW 04:34:41 10° SW
CZ-4B R/B 3.8 04:27:05 10° N 04:30:37 45° WNW 04:31:59 30° WSW
ATLAS CENTAUR R/B 3.4 04:32:06 12° SW 04:32:06 12° SW 04:32:57 10° SSW
Meteor PRIRODA 3.5 04:28:21 10° NNE 04:32:06 75° WNW 04:35:51 10° SSW
Cosmos 2297 Rocket 3.1 04:30:30 25° NW 04:32:41 33° NNW 04:37:49 10° NE
ATLAS 5 CENTAUR R/B 1.4 04:31:19 27° WSW 04:32:57 66° SSE 04:35:02 10° E
NOSS 2-2 (C) 3.7 04:31:55 34° WNW 04:33:40 67° N 04:38:57 10° E
Meteor 2-6 Rocket 4.4 04:29:50 16° NNW 04:33:43 43° W 04:38:48 10° SSW
CZ-2C R/B 3.2 04:30:42 10° N 04:34:19 26° NW 04:34:19 26° NW
H-2A R/B 2.8 04:32:03 10° NNE 04:36:00 84° ESE 04:39:55 10° SSW
RESURS DK-1 3.1 04:32:12 10° SSW 04:36:16 55° SE 04:40:22 10° NE
Lacrosse 5 3.2 04:32:54 10° SW 04:37:34 38° SSE 04:42:14 10° E
Cosmos 1437 Rocket 2.8 04:36:35 30° NW 04:38:05 48° W 04:41:43 10° S
USA 290 2.9 04:37:25 24° NNW 04:39:08 52° NE 04:42:22 10° SE
Okean O Rocket 3.2 04:35:21 10° NNE 04:39:32 39° E 04:43:43 10° SSE
ERBS 3.3 04:38:12 23° SW 04:39:46 39° S 04:42:54 10° ESE
Cosmos 1500 Rocket 3.4 04:36:12 10° SSW 04:40:32 78° WNW 04:44:55 10° NNE
SMAP 4.2 04:37:44 10° NNE 04:42:15 46° E 04:46:45 10° S
Cosmos 1242 Rocket 2.9 04:41:15 12° NNW 04:44:30 64° ENE 04:48:08 10° SSE
IDEFIX/ARIANE 42P 4.2 04:41:26 10° N 04:44:27 16° NW 04:44:27 16° NW
Geosat 4.0 04:40:34 10° SSE 04:45:33 64° SW 04:49:04 20° NW
Nadezhda 3 Rocket 4.1 04:39:48 10° NNW 04:45:56 53° W 04:51:59 10° SSW
Cosmos 2263 Rocket 2.3 04:43:11 14° WSW 04:47:58 57° NW 04:53:38 10° NE
NOSS 2-3 (E) 4.5 04:45:50 23° WNW 04:49:35 89° SSW 04:56:58 10° ESE
SJ 16-02 1.5 04:45:52 11° SW 04:49:59 50° NW 04:54:21 10° NNE
FENGYUN 3A 4.1 04:49:19 10° N 04:54:18 38° NW 04:59:15 10° WSW
Envisat 3.1 04:49:52 10° NNE 04:55:00 81° ESE 05:00:06 10° SSW
SJ-7 4.3 04:52:34 10° NNE 04:56:37 81° WNW 05:00:43 10° SSW
Cosmos 2251 Rocket 4.5 04:52:36 12° NNW 04:57:09 42° NE 05:02:07 10° ESE
Cosmos 1898 Rocket 3.5 04:52:14 10° SW 04:57:36 83° NW 05:02:59 10° NNE
CZ-2C R/B 2.6 04:52:54 10° S 04:58:21 69° WSW 05:03:41 10° NNW
H-2A R/B 2.5 04:54:43 10° NNE 04:58:39 75° ESE 05:02:29 10° SSW
ADEOS II 4.1 04:58:53 10° N 05:00:12 11° NNW 05:00:53 11° NNW
Cosmos 1484 Rocket 3.9 04:57:33 10° N 05:00:09 21° NW 05:00:09 21° NW
Cosmos 1766 Rocket 4.5 04:58:04 15° WSW 05:01:00 27° WNW 05:04:51 10° N
Sich 1 3.2 04:56:58 10° S 05:01:25 77° ESE 05:05:52 10° NNE
Cosmos 2082 Rocket 2.2 04:57:54 16° NW 05:02:33 80° SW 05:08:16 10° SSE
CZ-4B R/B 3.8 04:57:39 10° NNE 05:02:56 58° ESE 05:08:15 10° S
Cosmos 1743 Rocket 3.7 05:00:14 10° SSW 05:04:37 53° WNW 05:09:03 10° N
Cosmos 1408 Rocket 4.2 05:02:44 10° SW 05:06:49 34° WNW 05:10:55 10° N
Cosmos 1633 4.3 05:10:20 16° NNW 05:10:20 16° NNW 05:11:48 10° N
COSMO-SKYMED 1 4.5 05:06:55 10° WSW 05:07:59 13° WSW 05:07:59 13° WSW
CZ-4 R/B 4.1 05:07:44 10° NE 05:11:09 23° E 05:14:34 10° SE
Cosmos 1862 Rocket 3.5 05:07:14 10° NNW 05:11:45 76° WSW 05:16:11 10° S
Cosmos 1833 Rocket 3.0 05:08:14 16° NW 05:12:36 50° WSW 05:18:01 10° SSE
NOSS 2-2 (E) 3.9 05:09:40 19° WNW 05:12:48 69° N 05:18:35 10° E
CZ-4B R/B 3.6 05:08:59 10° N 05:13:13 40° WNW 05:17:24 10° SW
Cosmos 1269 Rocket 4.0 05:09:23 12° NW 05:14:20 84° WSW 05:19:38 10° SSE
Cosmos 1939 Rocket 4.4 05:10:33 10° NNE 05:14:24 40° E 05:18:18 10° S
deb Kosmos-1763 3.9 05:11:47 16° NW 05:14:38 87° WSW 05:18:14 10° SSE
Cosmos 1937 Rocket 3.4 05:09:26 10° SW 05:14:38 81° NW 05:19:55 10° NNE
Meteor 1-27 Rocket 4.2 05:09:49 10° NNW 05:15:10 42° W 05:20:36 10° SSW
ARIANE 5 R/B 4.3 05:13:54 10° N 05:16:00 13° NNW 05:16:53 12° NW
Meteor 2-12 Rocket 4.5 05:10:38 10° SSW 05:16:49 90° ESE 05:23:02 10° NNE
Meteor 2-3 Rocket 4.4 05:14:14 10° WSW 05:19:27 34° NW 05:24:44 10° N
MOS 1 Rocket 4.4 05:15:20 10° SSW 05:19:36 28° W 05:24:05 10° NNW
Cosmos 494 Rocket 4.2 05:15:42 13° NW 05:20:08 50° WSW 05:25:05 10° S
ATLAS 3B R/B 4.3 05:17:52 13° W 05:20:12 15° WSW 05:23:52 10° SW
CZ-4C R/B 2.6 05:15:03 10° SW 05:20:28 72° SSE 05:27:11 10° ENE
Cosmos 2154 Rocket 4.0 05:14:34 10° SSW 05:20:45 62° WNW 05:27:02 10° NNE
COSMOS 2406 3.8 05:18:03 14° NW 05:22:30 40° WSW 05:27:48 10° S
Cosmos 1805 Rocket 3.6 05:19:20 10° SSW 05:23:45 61° WNW 05:28:13 10° N
YAOGAN 6 2.6 05:20:48 10° N 05:24:16 52° WNW 05:27:41 10° SW
ALOS 3.5 05:23:16 10° N 05:26:49 22° NW 05:30:20 10° W
Aureole 2 Rocket 1.5 05:25:32 10° SW 05:28:06 81° NW 05:30:43 10° NNE
Cosmos 1666 Rocket 3.5 05:26:25 10° SSW 05:30:45 89° WNW 05:35:09 10° NNE
Meteor 2-4 Rocket 4.0 05:25:28 10° NNW 05:31:26 78° ENE 05:37:15 10° SSE
Cosmos 1862 3.9 05:27:40 10° SW 05:31:26 35° WNW 05:35:13 10° N
Genesis I 3.5 05:29:05 10° SW 05:32:55 69° SE 05:36:48 10° ENE
PSLV R/B 4.1 05:29:13 10° N 05:32:58 43° WNW 05:36:37 10° SW
H-2A R/B 4.2 05:29:00 10° NNE 05:33:13 27° E 05:37:22 10° SSE
Cosmos 2242 Rocket 3.6 05:29:32 10° NNW 05:34:03 89° E 05:38:28 10° SSE
DMSP B5D2-2 4.4 05:29:17 10° S 05:34:20 48° W 05:39:25 10° NNW
Cosmos 2341 Rocket 4.0 05:30:25 10° SSW 05:36:37 76° WNW 05:42:55 10° NNE
Meteor 1-31 Rocket 4.2 05:34:01 10° N 05:36:38 18° NW 05:39:14 10° W
Cosmos 2278 Rocket 3.7 05:32:32 10° S 05:37:50 43° ESE 05:43:11 10° NE
NOSS 2-2 (D) 3.9 05:34:21 13° WNW 05:38:10 71° N 05:43:54 10° E
Cosmos 990 Rocket 4.2 05:35:26 10° WSW 05:40:32 48° NW 05:45:40 10° NNE
Okean 1 3.4 05:36:55 10° NNW 05:40:54 57° W 05:44:52 10° S
NOAA 12 4.1 05:36:31 10° NNE 05:41:51 81° WNW 05:47:07 10° SSW
Cosmos 2074 Rocket 4.5 05:36:16 10° SW 05:41:59 37° WNW 05:47:45 10° N
H-2A R/B 4.3 05:39:03 10° SE 05:42:59 48° ENE 05:46:57 10° N
Cosmos 2227 Rocket 3.2 05:39:03 12° WNW 05:43:40 30° N 05:48:40 10° ENE
Cosmos 1727 Rocket 4.0 05:37:46 10° NNW 05:44:02 70° W 05:50:20 10° S
SL-8 Rocket 4.0 05:38:02 10° SSW 05:44:12 82° WNW 05:50:27 10° NNE
Meteor 1-19 Rocket 4.2 05:41:24 10° NNW 05:46:53 62° W 05:52:14 10° S
Cosmos 405 Rocket 3.4 05:44:00 10° WSW 05:47:21 30° WNW 05:50:46 10° N
Meteor 1-18 Rocket 4.4 05:42:59 10° NNW 05:48:42 61° W 05:54:16 10° S
USA 229 DEB 4.1 05:42:20 11° WNW 05:49:10 65° SW 05:56:36 10° SE
USA 229 4.1 05:42:25 11° WNW 05:49:15 65° SW 05:56:42 10° SE
Meteor 1-20 Rocket 4.4 05:45:17 10° SSW 05:51:01 87° ESE 05:56:54 10° NNE
Cosmos 909 Rocket 4.2 05:46:27 10° NW 05:52:41 66° SW 05:59:07 10° SE
SME Rocket 3.3 05:48:44 10° SSE 05:52:42 83° WSW 05:58:03 10° NNW
CZ-2D R/B 3.8 05:49:45 10° NNE 05:53:39 64° ESE 05:57:31 10° S
Cosmos 1271 Rocket 2.6 05:50:05 10° NNW 05:53:52 81° WSW 05:57:42 10° SSE
SL-4 R/B 4.3 05:53:00 10° SW 05:54:52 13° SSW 05:56:42 10° S
NOSS 3-4 (A) 3.6 05:51:01 10° WSW 05:57:15 79° NNW 06:04:11 10° ENE
Cosmos 1633 Rocket 3.1 05:52:52 10° SSW 05:57:16 66° WNW 06:01:42 10° NNE
NOSS 3-4 (C) 3.6 05:51:09 10° WSW 05:57:23 79° NNW 06:04:19 10° ENE
Cosmos 2219 4.3 05:52:19 10° NW 05:57:28 32° N 06:02:36 10° ENE
NOSS 3-1 (C) 4.4 05:55:04 10° WNW 06:01:52 54° SW 06:09:51 10° SSE
Cosmos 1515 4.2 05:59:09 10° NNW 06:02:45 40° W 06:06:20 10° SSW
Cosmos 1356 3.7 05:59:30 10° SW 06:02:47 43° WNW 06:06:07 10° N
NOSS 3-1 (A) 4.2 05:56:16 10° WNW 06:03:09 66° SW 06:11:17 10° SE
MOS 1-B 4.5 05:58:08 10° NNE 06:03:48 54° WNW 06:09:26 10° SW
Cosmos 1844 Rocket 2.8 06:00:42 10° WSW 06:06:18 59° NW 06:11:58 10° NE
NOAA 6 4.4 06:02:12 10° NNE 06:07:03 43° WNW 06:11:52 10° SW
H-2A R/B 4.1 06:06:47 10° N 06:09:45 21° NW 06:12:42 10° WSW
Okean-O 3.3 06:08:34 10° NNE 06:13:00 61° ESE 06:17:24 10° S
USA 290 3.7 06:10:37 10° NW 06:13:21 24° WSW 06:16:03 10° SSW
SL-27 R/B 3.5 06:10:20 10° NNW 06:13:31 36° NE 06:16:39 10° ESE
Cosmos 1666 4.4 06:10:06 10° SSE 06:13:33 36° E 06:17:03 10° NNE
COSMOS 2455 3.0 06:08:23 10° SW 06:14:26 84° SE 06:20:32 10° NE
RESURS DK-1 2.7 06:10:27 10° WSW 06:14:27 44° NNW 06:18:29 10° NE
Okean 1-7 3.2 06:11:02 10° NNW 06:15:19 55° W 06:19:31 10° S
CZ-2C R/B 4.2 06:10:50 10° S 06:15:29 49° W 06:20:08 10° NNW
Okean O Rocket 1.9 06:11:45 10° N 06:16:00 46° WNW 06:20:16 10° SW
ATLAS 2AS CENTAUR R/B 3.1 06:09:37 10° WSW 06:17:36 78° NNW 06:25:10 10° ENE
